Preview of NWS' New Version of Forecast
This preview is not operational and should not be used for support decisions.

Regional Weather Roundup (RWR)

Issued by National Weather Service (NWS)

                            
000
ASUS43 KLSX 200257
RWRMO 

WEATHER SUMMARY FOR MISSOURI
NATIONAL WEATHER SERVICE SPRINGFIELD MO
1000 PM CDT MON AUG 19 2019

NOTE: "FAIR" INDICATES FEW OR NO CLOUDS BELOW 12,000 FEET WITH NO
       SIGNIFICANT WEATHER AND/OR OBSTRUCTIONS TO VISIBILITY.
       CURRENT SKY AND/OR WEATHER CONDITIONS ARE NOT AVAILABLE FOR
       CHILLICOTHE AND FARMINGTON.

MOZ001>031-035>038-043-044-053-054-200400-
...NORTHERN AND WESTERN MISSOURI...
  
CITY           SKY/WX    TMP DP  RH WIND       PRES   REMARKS
KANSAS CTY INT PTCLDY    83  77  82 S8        29.97R HX  92           
LEE'S SUMMIT   CLEAR     85  76  74 SE5       29.99R HX  94           
ST JOSEPH      PTCLDY    84  78  82 SE9       29.95R HX  95           
CHILLICOTHE      N/A     83  77  82 SE3       29.98R HX  92           
     
$$
MOZ066>068-077>081-088>096-101>105-200400-
...SOUTHWEST MISSOURI...
  
CITY           SKY/WX    TMP DP  RH WIND       PRES   REMARKS
SPRINGFIELD    CLEAR     85  72  65 S9        30.01R HX  91           
JOPLIN         CLEAR     83  76  79 SE6       29.99R HX  91           
               
$$
MOZ032>034-039>042-045>050-055>058-069>072-200400-
...CENTRAL MISSOURI...  
  
CITY           SKY/WX    TMP DP  RH WIND       PRES   REMARKS
COLUMBIA       NOT AVBL                                               
ROLLA          CLEAR     79  73  82 S7        30.03R                  
SEDALIA        CLEAR     79  77  94 SE3       29.99R                  
               
$$
MOZ051-052-059>065-200400-
...EAST CENTRAL MISSOURI...
  
CITY           SKY/WX    TMP DP  RH WIND       PRES   REMARKS
ST LOUIS INTL  CLEAR     82  70  66 SE7       30.01R                  
                   
$$
MOZ072>076-082>087-097>100-106>115-200400-
...SOUTH CENTRAL AND SOUTHEAST MISSOURI...
  
CITY           SKY/WX    TMP DP  RH WIND       PRES   REMARKS
CAPE GIRARDEAU FAIR      80  75  84 SE3       30.02R                  
POPLAR BLUFF   FAIR      80  77  90 CALM      30.02R                  
WEST PLAINS    CLEAR     81  73  76 CALM      30.07R                  
                                       
$$